Time,TemperatureF,DewpointF,PressureIn,WindDirection,WindDirectionDegrees,WindSpeedMPH,WindSpeedGustMPH,Humidity,HourlyPrecipIn,Conditions,Clouds,dailyrainin,SoftwareType,DateUTC
2015-05-04 00:22:00,53.0,53.0,-100.00,SSW,210,0.0,2.0,99,-99.99,,,-99.99,,2015-05-04 05:22:00,
2015-05-04 00:32:00,53.0,53.0,-100.00,SSW,210,0.0,2.0,99,-99.99,,,-99.99,,2015-05-04 05:32:00,
2015-05-04 00:42:00,53.0,53.0,-100.00,SSW,210,0.0,2.0,99,-99.99,,,-99.99,,2015-05-04 05:42:00,
2015-05-04 00:52:00,53.0,53.0,-100.00,SSW,210,0.0,2.0,99,-99.99,,,-99.99,,2015-05-04 05:52:00,
2015-05-04 01:01:00,53.0,53.0,-100.00,SSW,210,0.0,2.0,99,-99.99,,,-99.99,,2015-05-04 06:01:00,
2015-05-04 01:22:00,52.0,52.0,-100.00,South,175,2.0,3.0,99,-99.99,,,-99.99,,2015-05-04 06:22:00,
2015-05-04 01:32:00,52.0,52.0,-100.00,South,175,2.0,3.0,99,-99.99,,,-99.99,,2015-05-04 06:32:00,
2015-05-04 01:42:00,52.0,52.0,-100.00,South,175,2.0,3.0,99,-99.99,,,-99.99,,2015-05-04 06:42:00,
2015-05-04 01:52:00,52.0,52.0,-100.00,South,175,2.0,3.0,99,-99.99,,,-99.99,,2015-05-04 06:52:00,
2015-05-04 02:02:00,52.0,52.0,-100.00,South,175,2.0,3.0,99,-99.99,,,-99.99,,2015-05-04 07:02:00,
2015-05-04 02:21:00,52.0,52.0,-100.00,NW,320,4.0,9.0,99,-99.99,,,-99.99,,2015-05-04 07:21:00,
2015-05-04 02:32:00,52.0,52.0,-100.00,NW,320,4.0,9.0,99,-99.99,,,-99.99,,2015-05-04 07:32:00,
2015-05-04 02:42:00,52.0,52.0,-100.00,NW,320,4.0,9.0,99,-99.99,,,-99.99,,2015-05-04 07:42:00,
2015-05-04 02:51:00,52.0,52.0,-100.00,NW,320,4.0,9.0,99,-99.99,,,-99.99,,2015-05-04 07:51:00,
2015-05-04 03:01:00,52.0,52.0,-100.00,NW,320,4.0,9.0,99,-99.99,,,-99.99,,2015-05-04 08:01:00,
2015-05-04 03:22:00,51.0,51.0,-100.00,North,-9999,-999.9,-999.0,99,-99.99,,,-99.99,,2015-05-04 08:22:00,
2015-05-04 03:31:00,51.0,51.0,-100.00,North,-9999,-999.9,-999.0,99,-99.99,,,-99.99,,2015-05-04 08:31:00,
2015-05-04 03:42:00,51.0,51.0,-100.00,North,-9999,-999.9,-999.0,99,-99.99,,,-99.99,,2015-05-04 08:42:00,
2015-05-04 03:51:00,51.0,51.0,-100.00,North,-9999,-999.9,-999.0,99,-99.99,,,-99.99,,2015-05-04 08:51:00,
2015-05-04 04:01:00,51.0,51.0,-100.00,North,-9999,-999.9,-999.0,99,-99.99,,,-99.99,,2015-05-04 09:01:00,
2015-05-04 04:21:00,50.0,50.0,-100.00,WNW,295,2.0,4.0,99,-99.99,,,-99.99,,2015-05-04 09:21:00,
2015-05-04 04:31:00,50.0,50.0,-100.00,WNW,295,2.0,4.0,99,-99.99,,,-99.99,,2015-05-04 09:31:00,
2015-05-04 04:42:00,50.0,50.0,-100.00,WNW,295,2.0,4.0,99,-99.99,,,-99.99,,2015-05-04 09:42:00,
2015-05-04 04:52:00,50.0,50.0,-100.00,WNW,295,2.0,4.0,99,-99.99,,,-99.99,,2015-05-04 09:52:00,
2015-05-04 05:01:00,50.0,50.0,-100.00,WNW,295,2.0,4.0,99,-99.99,,,-99.99,,2015-05-04 10:01:00,
2015-05-04 05:21:00,47.0,47.0,-100.00,NW,305,0.0,2.0,99,-99.99,,,-99.99,,2015-05-04 10:21:00,
2015-05-04 05:32:00,47.0,47.0,-100.00,NW,305,0.0,2.0,99,-99.99,,,-99.99,,2015-05-04 10:32:00,
2015-05-04 05:42:00,47.0,47.0,-100.00,NW,305,0.0,2.0,99,-99.99,,,-99.99,,2015-05-04 10:42:00,
2015-05-04 05:52:00,47.0,47.0,-100.00,NW,305,0.0,2.0,99,-99.99,,,-99.99,,2015-05-04 10:52:00,
2015-05-04 06:02:00,47.0,47.0,-100.00,NW,305,0.0,2.0,99,-99.99,,,-99.99,,2015-05-04 11:02:00,
2015-05-04 06:22:00,43.0,43.0,-100.00,NW,305,2.0,4.0,99,-99.99,,,-99.99,,2015-05-04 11:22:00,
2015-05-04 06:32:00,43.0,43.0,-100.00,NW,305,2.0,4.0,99,-99.99,,,-99.99,,2015-05-04 11:32:00,
2015-05-04 06:42:00,43.0,43.0,-100.00,NW,305,2.0,4.0,99,-99.99,,,-99.99,,2015-05-04 11:42:00,
2015-05-04 06:52:00,43.0,43.0,-100.00,NW,305,2.0,4.0,99,-99.99,,,-99.99,,2015-05-04 11:52:00,
2015-05-04 07:01:00,43.0,43.0,-100.00,NW,305,2.0,4.0,99,-99.99,,,-99.99,,2015-05-04 12:01:00,
2015-05-04 07:22:00,48.0,48.0,-100.00,NW,310,4.0,7.0,99,-99.99,,,-99.99,,2015-05-04 12:22:00,
2015-05-04 07:32:00,48.0,48.0,-100.00,NW,310,4.0,7.0,99,-99.99,,,-99.99,,2015-05-04 12:32:00,
2015-05-04 07:42:00,48.0,48.0,-100.00,NW,310,4.0,7.0,99,-99.99,,,-99.99,,2015-05-04 12:42:00,
2015-05-04 07:52:00,48.0,48.0,-100.00,NW,310,4.0,7.0,99,-99.99,,,-99.99,,2015-05-04 12:52:00,
2015-05-04 08:02:00,48.0,48.0,-100.00,NW,310,4.0,7.0,99,-99.99,,,-99.99,,2015-05-04 13:02:00,